Back to catalog

CZ-6A DEB

AlivePO
NORAD 60755·DEBRIS·🇨🇳 China

Launched Aug 6, 2024 from Taiyuan Satellite Launch Center

Loading…

Next Passes (next 24 hours)

TLE

FreshSource: Space-Track

Epoch: Sep 14, 2026, 09:49 UTC

1 60755U 24140EE  26257.40943061  .00000801  00000-0  46295-3 0  9991
2 60755  88.7780 247.7062 0128124 305.1723  53.7510 14.04121546105892

Track CZ-6A DEB in real time with AllMySat

Download on the App Store